View from above orbital plane
|
View from above satellite
|
Ground track
|
The orbit data is extracted from the following two-line orbital elements,
1 29032U 93014AZ 21055.05105690 .00006550 00000-0 55323-3 0 9999
2 29032 75.7489 332.6409 0054456 113.1877 247.5067 14.97030652871371
Epoch (UTC): | 24 February 2021 01:13:31 |
Eccentricity: | 0.0054456 |
inclination: | 75.7489° |
perigee height: | 538 km |
apogee height: | 614 km |
right ascension of ascending node: | 332.6409° |
argument of perigee: | 113.1877° |
revolutions per day: | 14.97030652 |
mean anomaly at epoch: | 247.5067° |
orbit number at epoch: | 87137 |
The dashed part of the orbit path shows where the satellite is in the earth's shadow,
|
|